Location: Hopewell Observatory
(38.8698°N, 77.6988°W)
Time: 12:43:13
(UTC-04:00)

Daily predictions for brighter satellites

Satellite Brightness Start Highest point End
(mag) Time Altitude Azimuth Time Altitude Azimuth Time Altitude Azimuth
USA 238 DEB 3.9 20:39:03 10° S 20:45:38 52° ESE 20:52:19 10° NE
USA 238 3.9 20:39:11 10° S 20:45:45 52° ESE 20:52:25 10° NE
Meteor 2-12 Rocket 4.5 20:41:10 10° S 20:47:10 67° E 20:53:13 10° NNE
Resurs 1-3 3.9 20:44:39 10° SSE 20:48:53 51° ENE 20:53:09 10° N
Cosmos 1980 Rocket 3.0 20:44:43 10° N 20:49:56 36° ENE 20:55:08 10° SE
Cosmos 1500 4.0 20:46:49 10° NNE 20:50:21 33° ENE 20:53:51 10° SE
BREEZE-M R/B 3.1 20:46:39 10° SW 20:52:13 49° SE 20:55:18 10° ENE
ISS -2.7 20:50:49 10° S 20:53:31 24° SE 20:56:14 10° ENE
Cosmos 1812 2.7 20:55:52 10° S 20:59:42 83° E 21:03:33 10° N
YAOGAN 6 2.8 20:57:15 10° S 21:00:57 77° W 21:04:39 10° NNW
Cosmos 1802 Rocket 4.1 20:56:49 10° S 21:03:06 85° E 21:09:32 10° N
Cosmos 1833 Rocket 3.4 20:58:17 10° SW 21:03:49 60° WNW 21:09:24 10° NNE
H-2A R/B 3.5 21:03:49 10° ESE 21:07:22 20° ENE 21:10:59 10° NNE
Cosmos 304 Rocket 4.3 21:03:51 10° SSE 21:08:16 37° ESE 21:12:41 10° NE
Cosmos 2369 4.3 21:03:17 10° NNW 21:08:49 57° WSW 21:14:21 10° S
DNEPR-1 R/B 3.9 21:05:19 10° S 21:09:14 40° ESE 21:13:31 10° NE
Abrixas rocket 3.7 21:11:42 10° S 21:13:55 17° SE 21:15:55 11° E
Cosmos 44 4.2 21:12:45 10° NW 21:17:57 54° WSW 21:23:13 10° SSE
Gblst 52 Del rocket 4.4 21:12:36 10° WNW 21:18:05 61° SW 21:22:59 13° SE
ERS-2 2.7 21:14:52 10° S 21:18:30 59° W 21:22:09 10° NNW
ATLAS CENTAUR R/B 2.0 21:14:52 10° NNW 21:19:19 54° NE 21:23:09 15° SE
NOSS 3-2 (A) 3.5 21:14:07 10° S 21:19:41 51° ESE 21:25:47 10° NE
SL-24 R/B 4.4 21:14:58 10° S 21:19:47 80° E 21:24:53 10° N
USA 234 3.6 21:15:40 10° NE 21:22:13 75° NW 21:28:46 10° SW
NOSS 3-2 (C) 3.9 21:17:49 10° S 21:23:07 37° ESE 21:28:50 10° NE
Cosmos 1536 4.4 21:21:07 10° NNW 21:24:52 36° W 21:28:35 10° SSW
Cosmos 1975 Rocket 4.0 21:22:29 14° SE 21:25:20 27° E 21:29:00 10° NNE
Okean 1 Rocket 3.2 21:21:34 10° N 21:25:51 54° E 21:29:27 14° SSE
Cosmos 1674 Rocket 3.8 21:21:56 10° SSW 21:26:21 75° W 21:30:50 10° N
Cosmos 1378 Rocket 3.5 21:22:29 10° S 21:26:45 64° E 21:31:02 10° NNE
Cosmos 1242 Rocket 4.1 21:24:03 10° NNE 21:26:53 21° ENE 21:28:22 16° ESE
Cosmos 2233 Rocket 4.2 21:21:50 10° SSE 21:27:41 49° E 21:33:35 10° NNE
Resurs 01 Rocket 2.2 21:26:14 10° S 21:30:34 56° W 21:34:55 10° NNW
Atlas Centaur 2 2.4 21:28:16 10° SW 21:31:07 21° S 21:32:11 18° SSE
ERS-1 Rocket 4.1 21:28:00 15° ESE 21:31:07 28° ENE 21:35:21 10° N
Tiangong 2 1.6 21:29:39 10° SW 21:32:35 36° SSE 21:34:27 18° E
Cosmos 2082 Rocket 3.8 21:28:46 10° SW 21:34:00 38° WNW 21:39:17 10° N
Cosmos 1975 3.2 21:31:53 10° N 21:35:48 46° E 21:38:14 20° SE
NOAA 11 4.4 21:31:00 10° S 21:36:29 76° WSW 21:41:58 10° NNW
COSMOS 2487 2.9 21:33:07 10° SSW 21:36:35 63° WNW 21:40:04 10° N
Cosmos 2322 Rocket 3.3 21:33:49 10° N 21:38:41 29° ENE 21:42:00 17° ESE
CZ-4B DEB 4.4 21:38:30 18° SSE 21:40:57 82° ENE 21:44:27 10° N
SL-16 R/B 3.1 21:40:04 10° N 21:45:13 34° ENE 21:48:26 20° ESE
Timation 2 Rocket 3.9 21:43:42 10° S 21:49:29 56° ESE 21:55:23 10° NNE
ARGOS 3.1 21:49:16 19° SSE 21:53:07 73° ENE 21:58:31 10° N
Meteor 1-19 Rocket 4.4 21:49:41 13° S 21:54:55 60° E 22:00:45 10° NNE
SPOT 5 3.9 21:54:03 21° E 21:55:34 26° ENE 21:59:16 10° NNE
CENTAUR R/B 3.2 21:55:23 23° SE 21:57:32 29° ESE 22:02:59 10° NE
GPS 2-04 Rocket1 3.4 21:54:18 10° W 21:58:20 43° SSW 21:59:43 32° SSE
SJ 16-02 3.7 22:03:05 10° NE 22:03:46 10° ENE 22:04:27 10° ENE
Helios 1A 3.8 22:03:55 29° ESE 22:05:02 34° ENE 22:08:48 10° N
ATLAS 3B R/B 3.4 22:00:07 10° SW 22:07:12 58° NW 22:14:03 10° NNE
Cosmos 1464 Rocket 4.3 22:09:53 27° SSE 22:13:01 48° E 22:19:06 10° NNE
USA 32 4.1 22:12:55 10° N 22:18:07 59° E 22:20:04 36° SSE
Cosmos 2084 3.3 22:17:48 26° SSW 22:20:06 61° ESE 22:24:12 10° NE
Terra 3.1 22:20:00 24° E 22:21:00 26° ENE 22:24:53 10° NNE
Cosmos 468 Rocket 4.4 22:19:47 10° SSW 22:25:01 66° WNW 22:30:16 10° NNE
Lacrosse 5 rocket 3.9 22:22:55 10° N 22:25:08 14° NNE 22:27:17 10° NE
USA 245 2.6 22:25:00 79° SE 22:25:10 85° ENE 22:28:53 10° NNW
Shenzhou-11 Module 3.4 22:23:27 10° WNW 22:26:15 36° N 22:26:59 30° NNE
Cosmos 1937 Rocket 3.5 22:21:09 10° NNW 22:26:16 67° ENE 22:27:54 42° SE
Aureole 2 Rocket 4.1 22:25:03 10° NNE 22:26:40 19° NE 22:26:40 19° NE
ISS -2.0 22:26:53 10° W 22:29:54 33° NNW 22:32:55 10° NE
MetOp-B 4.5 22:27:45 26° S 22:30:44 61° WSW 22:36:02 10° NNW
Cosmos 2360 Rocket 3.2 22:26:11 10° N 22:31:16 33° ENE 22:33:03 27° E
SL-08 RB Rocket 4.1 22:29:44 31° SSW 22:31:42 57° W 22:36:11 10° NNW
CARTOSAT-1 4.4 22:31:49 33° E 22:32:11 34° ENE 22:36:06 10° N
Cosmos 1980 Rocket 3.7 22:28:56 10° NW 22:33:47 30° WSW 22:37:31 15° SSW
Cosmos 2219 Rocket 4.4 22:35:23 10° NNE 22:37:24 12° NE 22:39:27 10° ENE
Cosmos 1763 Rocket 3.5 22:34:07 19° SSW 22:37:59 81° WNW 22:43:18 10° NNE
Meteor 2-9 Rocket 4.0 22:33:29 10° N 22:38:50 87° WSW 22:40:44 42° S
Cosmos 841 Rocket 3.4 22:37:55 40° S 22:39:48 73° ESE 22:45:04 10° NNE
Cosmos 1666 4.4 22:37:30 10° NNW 22:40:54 29° W 22:42:32 21° SW
Cosmos 540 Rocket 3.9 22:41:48 42° ESE 22:41:48 42° ESE 22:46:38 10° NNE
SPOT 1/Viking Rocket 3.5 22:40:44 48° SSE 22:42:14 80° ENE 22:47:25 10° N
Cosmos 1743 4.3 22:38:58 10° NNW 22:42:22 30° W 22:43:46 23° SW
Cosmos 2333 Rocket 4.5 22:40:51 10° NNE 22:43:03 12° NE 22:45:15 10° ENE
H-2A R/B 2.8 22:44:12 26° SSW 22:46:28 43° W 22:51:12 10° NNW
COSMOS 2428 4.4 22:42:50 10° N 22:46:54 20° NE 22:48:47 17° ENE
OAO 1 Rocket 4.5 22:41:42 10° WSW 22:46:54 55° S 22:47:11 54° SSE
CZ-2C R/B 3.8 22:43:31 10° NE 22:47:57 28° E 22:47:57 28° E
Meteor 2-4 Rocket 3.9 22:45:41 26° SSW 22:48:45 67° W 22:54:16 10° N
DMSP B5D2-2 4.3 22:44:01 10° N 22:49:18 72° WNW 22:52:03 29° SSW
Abrixas rocket 3.9 22:46:55 10° WSW 22:48:33 26° W 22:48:33 26° W
Cosmos 1340 Rocket 3.0 22:51:32 60° SW 22:52:03 68° W 22:56:07 10° N
Helios 1B rocket 2.3 22:48:22 10° NNE 22:52:31 89° WNW 22:52:46 79° SSW
IGS 5A 3.6 22:53:25 60° ENE 22:53:25 60° ENE 22:57:25 10° N
Cosmos 1833 4.1 22:53:11 46° S 22:54:53 73° ESE 23:00:35 10° NNE
Cosmos 1455 Rocket 3.2 22:51:11 10° NNW 22:55:30 64° W 22:56:06 57° SW
ATLAS CENTAUR R/B 3.8 22:55:02 10° WNW 22:57:58 17° WSW 22:59:25 15° SW
Cosmos 1025 Rocket 4.0 22:59:55 34° ENE 22:59:55 34° ENE 23:03:02 10° NNE
Cosmos 1356 4.3 23:02:48 49° NW 23:02:48 49° NW 23:05:39 10° N
Spot 1 3.9 23:04:57 81° N 23:04:57 81° N 23:08:51 10° NNW
Tiangong 2 3.8 23:06:09 10° W 23:06:45 14° W 23:06:45 14° W
ERS-1 Rocket 4.3 23:07:59 25° SW 23:09:46 31° W 23:14:14 10° NW
BREEZE M DEB (TANK) 2.9 23:07:09 10° WNW 23:13:13 54° WSW 23:13:13 54° WSW
Cosmos 2322 4.0 23:08:41 10° NNW 23:14:20 55° ENE 23:15:05 51° E
Meteor 1-29 4.1 23:11:01 10° N 23:13:38 43° NNW 23:13:38 43° NNW
Meteor 1-15 Rocket 4.1 23:10:04 10° N 23:15:51 86° W 23:16:45 65° S
Cosmos 1125 Rocket 3.9 23:12:09 10° N 23:17:14 47° ENE 23:17:27 47° ENE
Cosmos 292 Rocket 4.5 23:16:51 36° WSW 23:18:22 50° WNW 23:23:01 10° N
Cosmos 2322 Rocket 3.1 23:17:37 10° NW 23:22:46 38° WSW 23:23:50 35° SW
Cosmos 1092 Rocket 4.1 23:17:37 10° N 23:23:54 61° E 23:24:43 56° ESE
Cosmos 1066 Rocket 4.1 23:24:23 62° E 23:24:23 62° E 23:29:30 10° NNE
Cosmos 2237 Rocket 4.4 23:22:39 10° NNE 23:25:45 15° NE 23:27:50 12° ENE
SL-16 R/B 3.3 23:24:15 10° NW 23:29:12 32° WSW 23:30:19 29° SW
Nadezhda 4 Rocket 4.0 23:24:19 10° N 23:30:38 81° W 23:31:47 62° SSW
Cosmos 836 Rocket 4.4 23:31:58 87° WNW 23:31:58 87° WNW 23:37:12 10° NNE
SPOT 5 4.2 23:33:17 25° WSW 23:33:35 25° W 23:37:16 10° NW
Cosmos 2237 4.1 23:34:49 10° NNW 23:40:35 88° ENE 23:40:45 85° SE
CZ-2C R/B 3.1 23:41:02 72° WSW 23:41:07 73° WSW 23:46:37 10° NNW
SJ 16-02 2.0 23:38:28 10° NNW 23:42:00 55° NW 23:42:00 55° NW
Cosmos 2219 3.8 23:44:28 44° ENE 23:44:28 44° ENE 23:48:54 10° NNE
CENTAUR R/B 3.4 23:42:22 12° WSW 23:47:46 47° NW 23:54:22 10° NNE
Mayak 1.0 23:48:48 10° NE 23:50:06 17° NE 23:50:06 17° NE
